This is the latest recevied weather packets stored in our database for station/object W5GMO. If no packets are shown the sender has not sent any weather packets the latest 10 day(s).
| Time | Temp. | Humidity | Pressure | Rain* | Wind** | Luminosity | Snow |
|---|---|---|---|---|---|---|---|
| 1787868819 | 30° C | 1% | 1013.3 hPa | 0 mm | - | 65 W/m² | - |
| 1787868518 | 30° C | 1% | 1013.3 hPa | 0 mm | - | 74 W/m² | - |
| 1787868217 | 30° C | 1% | 1013.5 hPa | 0 mm | - | 84 W/m² | - |
| 1787867912 | 30° C | 1% | 1013.4 hPa | 0 mm | - | 83 W/m² | - |
| 1787867608 | 30° C | 1% | 1013.5 hPa | 0 mm | - | 81 W/m² | - |
| 1787867308 | 30° C | 1% | 1013.1 hPa | 0 mm | - | 99 W/m² | - |
| 1787867006 | 30° C | 1% | 1012.9 hPa | 0 mm | - | 116 W/m² | - |
| 1787866699 | 30° C | 1% | 1012.7 hPa | 0 mm | - | 129 W/m² | - |
| 1787866398 | 30.56° C | 1% | 1012.8 hPa | 0 mm | - | 138 W/m² | - |
| 1787866093 | 30.56° C | 1% | 1012.6 hPa | 0 mm | - | 135 W/m² | - |
| 1787865788 | 30.56° C | 1% | 1012.7 hPa | 0 mm | - | 144 W/m² | - |
| 1787865483 | 30.56° C | 1% | 1012.6 hPa | 0 mm | - | 185 W/m² | - |
| 1787865177 | 30.56° C | 1% | 1012.3 hPa | 0 mm | - | 171 W/m² | - |
| 1787864875 | 30.56° C | 1% | 1012.9 hPa | 0 mm | - | 220 W/m² | - |
| 1787864574 | 30.56° C | 1% | 1012.9 hPa | 0 mm | - | 187 W/m² | - |
| 1787864269 | 31.11° C | 1% | 1013.1 hPa | 0 mm | - | 213 W/m² | - |
| 1787863963 | 30.56° C | 1% | 1013.1 hPa | 0 mm | - | 250 W/m² | - |
| 1787863662 | 30.56° C | 1% | 1013.2 hPa | 0 mm | - | 308 W/m² | - |
| 1787863355 | 31.11° C | 1% | 1013.2 hPa | 0 mm | - | 341 W/m² | - |
| 1787863052 | 31.11° C | 1% | 1013.1 hPa | 0 mm | - | 329 W/m² | - |
| 1787862752 | 31.11° C | 1% | 1013.3 hPa | 0 mm | - | 350 W/m² | - |
| 1787862451 | 31.11° C | 1% | 1013.3 hPa | 0 mm | - | 335 W/m² | - |
| 1787862147 | 31.11° C | 1% | 1013.3 hPa | 0 mm | - | 358 W/m² | - |
| 1787861842 | 31.11° C | 1% | 1013.5 hPa | 0 mm | - | 372 W/m² | - |
| 1787861542 | 31.11° C | 1% | 1013.4 hPa | 0 mm | - | 294 W/m² | - |
* Rain latest hour (hover to see other rain measurements)
** Current wind speed in m/s (hover to see current wind gust speed)